Time,TemperatureF,DewpointF,PressureIn,WindDirection,WindDirectionDegrees,WindSpeedMPH,WindSpeedGustMPH,Humidity,HourlyPrecipIn,Conditions,Clouds,dailyrainin,SoftwareType,DateUTC
2013-01-27 00:03:00,23.5,9.7,30.21,WNW,292,0.0,0.0,55,0.00,,,0.00,WUHU21636XXSP,2013-01-27 06:03:00,
2013-01-27 00:08:00,23.5,10.1,30.22,WSW,247,0.0,0.0,56,0.00,,,0.00,WUHU21636XXSP,2013-01-27 06:08:00,
2013-01-27 00:13:00,23.5,10.1,30.22,West,270,0.0,0.0,56,0.00,,,0.00,WUHU21636XXSP,2013-01-27 06:13:00,
2013-01-27 00:18:00,23.5,9.7,30.21,West,270,0.0,0.0,55,0.00,,,0.00,WUHU21636XXSP,2013-01-27 06:18:00,
2013-01-27 00:23:00,23.7,9.9,30.21,West,270,0.0,0.0,55,0.00,,,0.00,WUHU21636XXSP,2013-01-27 06:23:00,
2013-01-27 00:28:00,23.7,9.9,30.21,West,270,0.0,0.0,55,0.00,,,0.00,WUHU21636XXSP,2013-01-27 06:28:00,
2013-01-27 00:33:00,23.7,9.9,30.21,WSW,247,0.0,0.0,55,0.00,,,0.00,WUHU21636XXSP,2013-01-27 06:33:00,
2013-01-27 00:38:00,23.7,9.9,30.21,West,270,0.0,0.0,55,0.00,,,0.00,WUHU21636XXSP,2013-01-27 06:38:00,
2013-01-27 00:43:00,23.9,10.5,30.20,West,270,0.0,0.0,56,0.00,,,0.00,WUHU21636XXSP,2013-01-27 06:43:00,
2013-01-27 00:48:00,23.9,10.1,30.20,West,270,0.0,0.0,55,0.00,,,0.00,WUHU21636XXSP,2013-01-27 06:48:00,
2013-01-27 00:53:00,23.9,10.1,30.20,WSW,247,0.0,0.0,55,0.00,,,0.00,WUHU21636XXSP,2013-01-27 06:53:00,
2013-01-27 00:58:00,23.9,10.1,30.20,WSW,247,0.0,0.0,55,0.00,,,0.00,WUHU21636XXSP,2013-01-27 06:58:00,
2013-01-27 01:03:00,23.9,10.1,30.20,WSW,247,0.0,0.0,55,0.00,,,0.00,WUHU21636XXSP,2013-01-27 07:03:00,
2013-01-27 01:08:00,23.9,10.5,30.20,West,270,0.0,0.0,56,0.00,,,0.00,WUHU21636XXSP,2013-01-27 07:08:00,
2013-01-27 01:13:00,23.9,10.5,30.20,WSW,247,0.0,0.0,56,0.00,,,0.00,WUHU21636XXSP,2013-01-27 07:13:00,
2013-01-27 01:18:00,23.9,10.5,30.20,West,270,0.0,0.0,56,0.00,,,0.00,WUHU21636XXSP,2013-01-27 07:18:00,
2013-01-27 01:23:00,24.1,10.7,30.19,WNW,292,0.0,0.0,56,0.00,,,0.00,WUHU21636XXSP,2013-01-27 07:23:00,
2013-01-27 01:28:00,24.1,10.7,30.20,West,270,0.0,0.0,56,0.00,,,0.00,WUHU21636XXSP,2013-01-27 07:28:00,
2013-01-27 01:33:00,24.3,10.8,30.19,West,270,0.0,0.0,56,0.00,,,0.00,WUHU21636XXSP,2013-01-27 07:33:00,
2013-01-27 01:38:00,24.3,10.8,30.19,West,270,0.0,0.0,56,0.00,,,0.00,WUHU21636XXSP,2013-01-27 07:38:00,
2013-01-27 01:43:00,24.1,10.7,30.18,West,270,0.0,0.0,56,0.00,,,0.00,WUHU21636XXSP,2013-01-27 07:43:00,
2013-01-27 01:48:00,24.3,10.8,30.19,West,270,0.0,0.0,56,0.00,,,0.00,WUHU21636XXSP,2013-01-27 07:48:00,
2013-01-27 01:53:00,24.3,10.8,30.19,West,270,0.0,0.0,56,0.00,,,0.00,WUHU21636XXSP,2013-01-27 07:53:00,
2013-01-27 01:58:00,24.3,10.8,30.19,West,270,0.0,0.0,56,0.00,,,0.00,WUHU21636XXSP,2013-01-27 07:58:00,
2013-01-27 02:03:00,24.3,10.8,30.19,WSW,247,0.0,0.0,56,0.00,,,0.00,WUHU21636XXSP,2013-01-27 08:03:00,
2013-01-27 02:08:00,24.3,10.8,30.18,WSW,247,0.0,0.0,56,0.00,,,0.00,WUHU21636XXSP,2013-01-27 08:08:00,
2013-01-27 02:13:00,24.3,10.8,30.19,WSW,247,2.2,2.2,56,0.00,,,0.00,WUHU21636XXSP,2013-01-27 08:13:00,
2013-01-27 02:18:00,24.3,10.8,30.19,West,270,0.0,2.2,56,0.00,,,0.00,WUHU21636XXSP,2013-01-27 08:18:00,
2013-01-27 02:23:00,24.3,11.2,30.19,WSW,247,0.0,2.2,57,0.00,,,0.00,WUHU21636XXSP,2013-01-27 08:23:00,
2013-01-27 02:28:00,24.3,10.8,30.18,West,270,0.0,0.0,56,0.00,,,0.00,WUHU21636XXSP,2013-01-27 08:28:00,
2013-01-27 02:33:00,24.3,10.8,30.18,WNW,292,0.0,0.0,56,0.00,,,0.00,WUHU21636XXSP,2013-01-27 08:33:00,
2013-01-27 02:38:00,24.3,11.2,30.18,West,270,0.0,0.0,57,0.00,,,0.00,WUHU21636XXSP,2013-01-27 08:38:00,
2013-01-27 02:43:00,24.3,11.2,30.18,NW,315,0.0,0.0,57,0.00,,,0.00,WUHU21636XXSP,2013-01-27 08:43:00,
2013-01-27 02:48:00,24.5,11.4,30.17,NW,315,0.0,0.0,57,0.00,,,0.00,WUHU21636XXSP,2013-01-27 08:48:00,
2013-01-27 02:53:00,24.3,11.2,30.16,North,0,0.0,0.0,57,0.00,,,0.00,WUHU21636XXSP,2013-01-27 08:53:00,
2013-01-27 02:58:00,24.5,11.4,30.17,West,270,0.0,0.0,57,0.00,,,0.00,WUHU21636XXSP,2013-01-27 08:58:00,
2013-01-27 03:03:00,24.5,11.4,30.16,SSW,202,0.0,0.0,57,0.00,,,0.00,WUHU21636XXSP,2013-01-27 09:03:00,
2013-01-27 03:08:00,24.5,11.8,30.16,WNW,292,0.0,0.0,58,0.00,,,0.00,WUHU21636XXSP,2013-01-27 09:08:00,
2013-01-27 03:13:00,24.5,11.4,30.16,WNW,292,0.0,0.0,57,0.00,,,0.00,WUHU21636XXSP,2013-01-27 09:13:00,
2013-01-27 03:18:00,24.5,11.8,30.16,WNW,292,0.0,0.0,58,0.00,,,0.00,WUHU21636XXSP,2013-01-27 09:18:00,
2013-01-27 03:23:00,24.5,11.4,30.17,West,270,0.0,0.0,57,0.00,,,0.00,WUHU21636XXSP,2013-01-27 09:23:00,
2013-01-27 03:28:00,24.5,11.8,30.16,NNE,22,0.0,0.0,58,0.00,,,0.00,WUHU21636XXSP,2013-01-27 09:28:00,
2013-01-27 03:33:00,24.5,11.4,30.16,NNW,337,0.0,0.0,57,0.00,,,0.00,WUHU21636XXSP,2013-01-27 09:33:00,
2013-01-27 03:38:00,24.5,11.8,30.16,NNW,337,0.0,0.0,58,0.00,,,0.00,WUHU21636XXSP,2013-01-27 09:38:00,
2013-01-27 03:44:00,24.5,11.4,30.16,West,270,0.0,0.0,57,0.00,,,0.00,WUHU21636XXSP,2013-01-27 09:44:00,
2013-01-27 03:49:00,24.9,11.8,30.15,WNW,292,0.0,0.0,57,0.00,,,0.00,WUHU21636XXSP,2013-01-27 09:49:00,
2013-01-27 03:55:00,24.9,12.2,30.15,WNW,292,0.0,0.0,58,0.00,,,0.00,WUHU21636XXSP,2013-01-27 09:55:00,
2013-01-27 04:00:00,24.9,11.8,30.15,WNW,292,0.0,0.0,57,0.00,,,0.00,WUHU21636XXSP,2013-01-27 10:00:00,
2013-01-27 04:05:00,24.9,12.2,30.15,WNW,292,0.0,0.0,58,0.00,,,0.00,WUHU21636XXSP,2013-01-27 10:05:00,
2013-01-27 04:10:00,24.9,12.2,30.14,WNW,292,0.0,0.0,58,0.00,,,0.00,WUHU21636XXSP,2013-01-27 10:10:00,
2013-01-27 04:15:00,24.9,12.2,30.14,WNW,292,0.0,0.0,58,0.00,,,0.00,WUHU21636XXSP,2013-01-27 10:15:00,
2013-01-27 04:20:00,24.9,12.6,30.14,WNW,292,0.0,0.0,59,0.00,,,0.00,WUHU21636XXSP,2013-01-27 10:20:00,
2013-01-27 04:25:00,24.9,12.6,30.14,WNW,292,0.0,0.0,59,0.00,,,0.00,WUHU21636XXSP,2013-01-27 10:25:00,
2013-01-27 04:30:00,25.1,12.4,30.14,WNW,292,0.0,0.0,58,0.00,,,0.00,WUHU21636XXSP,2013-01-27 10:30:00,
2013-01-27 04:35:00,25.1,12.4,30.14,WSW,247,0.0,0.0,58,0.00,,,0.00,WUHU21636XXSP,2013-01-27 10:35:00,
2013-01-27 04:40:00,25.1,12.8,30.14,West,270,0.0,0.0,59,0.00,,,0.00,WUHU21636XXSP,2013-01-27 10:40:00,
2013-01-27 04:45:00,25.2,12.1,30.14,West,270,0.0,0.0,57,0.00,,,0.00,WUHU21636XXSP,2013-01-27 10:45:00,
2013-01-27 04:50:00,25.2,12.5,30.13,West,270,0.0,0.0,58,0.00,,,0.00,WUHU21636XXSP,2013-01-27 10:50:00,
2013-01-27 04:55:00,25.2,12.9,30.13,West,270,0.0,0.0,59,0.00,,,0.00,WUHU21636XXSP,2013-01-27 10:55:00,
2013-01-27 05:00:00,25.2,12.9,30.14,West,270,0.0,0.0,59,0.00,,,0.00,WUHU21636XXSP,2013-01-27 11:00:00,
2013-01-27 05:05:00,25.2,12.9,30.13,West,270,0.0,0.0,59,0.00,,,0.00,WUHU21636XXSP,2013-01-27 11:05:00,
2013-01-27 05:10:00,25.2,12.5,30.13,WSW,247,0.0,0.0,58,0.00,,,0.00,WUHU21636XXSP,2013-01-27 11:10:00,
2013-01-27 05:15:00,25.4,12.7,30.13,NW,315,0.0,0.0,58,0.00,,,0.00,WUHU21636XXSP,2013-01-27 11:15:00,
2013-01-27 05:20:00,25.4,12.7,30.13,West,270,0.0,0.0,58,0.00,,,0.00,WUHU21636XXSP,2013-01-27 11:20:00,
2013-01-27 05:25:00,25.4,12.7,30.13,West,270,0.0,0.0,58,0.00,,,0.00,WUHU21636XXSP,2013-01-27 11:25:00,
2013-01-27 05:30:00,25.4,13.1,30.13,SW,225,0.0,0.0,59,0.00,,,0.00,WUHU21636XXSP,2013-01-27 11:30:00,
2013-01-27 05:35:00,25.4,12.7,30.13,West,270,0.0,0.0,58,0.00,,,0.00,WUHU21636XXSP,2013-01-27 11:35:00,
2013-01-27 05:40:00,25.4,12.7,30.14,West,270,0.0,0.0,58,0.00,,,0.00,WUHU21636XXSP,2013-01-27 11:40:00,
2013-01-27 05:45:00,25.4,13.1,30.13,West,270,0.0,0.0,59,0.00,,,0.00,WUHU21636XXSP,2013-01-27 11:45:00,
2013-01-27 05:50:00,25.4,13.1,30.13,WNW,292,0.0,0.0,59,0.00,,,0.00,WUHU21636XXSP,2013-01-27 11:50:00,
2013-01-27 05:55:00,25.4,13.1,30.13,WNW,292,0.0,0.0,59,0.00,,,0.00,WUHU21636XXSP,2013-01-27 11:55:00,
2013-01-27 06:00:00,25.4,13.1,30.13,WSW,247,0.0,0.0,59,0.00,,,0.00,WUHU21636XXSP,2013-01-27 12:00:00,
2013-01-27 06:05:00,25.4,12.7,30.13,West,270,0.0,0.0,58,0.00,,,0.00,WUHU21636XXSP,2013-01-27 12:05:00,
2013-01-27 06:10:00,25.6,12.9,30.13,WNW,292,0.0,0.0,58,0.00,,,0.00,WUHU21636XXSP,2013-01-27 12:10:00,
2013-01-27 06:15:00,25.6,13.3,30.13,WNW,292,0.0,0.0,59,0.00,,,0.00,WUHU21636XXSP,2013-01-27 12:15:00,
2013-01-27 06:20:00,25.6,13.3,30.13,WNW,292,0.0,0.0,59,0.00,,,0.00,WUHU21636XXSP,2013-01-27 12:20:00,
2013-01-27 06:25:00,25.6,13.3,30.12,NW,315,0.0,0.0,59,0.00,,,0.00,WUHU21636XXSP,2013-01-27 12:25:00,
2013-01-27 06:30:00,25.6,12.9,30.12,West,270,0.0,0.0,58,0.00,,,0.00,WUHU21636XXSP,2013-01-27 12:30:00,
2013-01-27 06:35:00,25.8,13.5,30.12,West,270,0.0,0.0,59,0.00,,,0.00,WUHU21636XXSP,2013-01-27 12:35:00,
2013-01-27 06:40:00,25.8,13.5,30.12,WNW,292,0.0,0.0,59,0.00,,,0.00,WUHU21636XXSP,2013-01-27 12:40:00,
2013-01-27 06:45:00,25.8,13.5,30.12,West,270,0.0,0.0,59,0.00,,,0.00,WUHU21636XXSP,2013-01-27 12:45:00,
2013-01-27 06:50:00,25.8,13.5,30.12,WNW,292,0.0,0.0,59,0.00,,,0.00,WUHU21636XXSP,2013-01-27 12:50:00,
2013-01-27 06:55:00,25.8,13.5,30.13,WNW,292,0.0,0.0,59,0.00,,,0.00,WUHU21636XXSP,2013-01-27 12:55:00,
2013-01-27 07:00:00,25.8,13.5,30.12,WNW,292,0.0,0.0,59,0.00,,,0.00,WUHU21636XXSP,2013-01-27 13:00:00,
2013-01-27 07:05:00,26.0,13.7,30.13,NNW,337,0.0,0.0,59,0.00,,,0.00,WUHU21636XXSP,2013-01-27 13:05:00,
2013-01-27 07:10:00,26.0,13.3,30.13,NNW,337,0.0,0.0,58,0.00,,,0.00,WUHU21636XXSP,2013-01-27 13:10:00,
2013-01-27 07:15:00,26.0,13.3,30.13,NW,315,0.0,0.0,58,0.00,,,0.00,WUHU21636XXSP,2013-01-27 13:15:00,
2013-01-27 07:20:00,26.1,13.8,30.13,NW,315,0.0,0.0,59,0.00,,,0.00,WUHU21636XXSP,2013-01-27 13:20:00,
2013-01-27 07:25:00,26.1,13.8,30.13,NNW,337,0.0,0.0,59,0.00,,,0.00,WUHU21636XXSP,2013-01-27 13:25:00,
2013-01-27 07:30:00,26.1,14.2,30.13,East,90,0.0,0.0,60,0.00,,,0.00,WUHU21636XXSP,2013-01-27 13:30:00,
2013-01-27 07:35:00,26.1,13.8,30.12,ENE,67,0.0,0.0,59,0.00,,,0.00,WUHU21636XXSP,2013-01-27 13:35:00,
2013-01-27 07:40:00,26.1,13.8,30.13,ENE,67,0.0,0.0,59,0.00,,,0.00,WUHU21636XXSP,2013-01-27 13:40:00,
2013-01-27 07:45:00,26.1,14.2,30.12,ENE,67,0.0,0.0,60,0.00,,,0.00,WUHU21636XXSP,2013-01-27 13:45:00,
2013-01-27 07:50:00,26.1,13.8,30.12,North,0,0.0,0.0,59,0.00,,,0.00,WUHU21636XXSP,2013-01-27 13:50:00,
2013-01-27 07:55:00,26.1,13.4,30.12,North,0,0.0,0.0,58,0.00,,,0.00,WUHU21636XXSP,2013-01-27 13:55:00,
2013-01-27 08:00:00,26.1,13.8,30.12,North,0,0.0,0.0,59,0.00,,,0.00,WUHU21636XXSP,2013-01-27 14:00:00,
2013-01-27 08:05:00,26.4,14.0,30.12,North,0,0.0,0.0,59,0.00,,,0.00,WUHU21636XXSP,2013-01-27 14:05:00,
2013-01-27 08:10:00,26.4,14.4,30.12,North,0,0.0,0.0,60,0.00,,,0.00,WUHU21636XXSP,2013-01-27 14:10:00,
2013-01-27 08:15:00,26.6,14.2,30.12,South,180,0.0,0.0,59,0.00,,,0.00,WUHU21636XXSP,2013-01-27 14:15:00,
2013-01-27 08:20:00,26.6,14.2,30.12,South,180,0.0,0.0,59,0.00,,,0.00,WUHU21636XXSP,2013-01-27 14:20:00,
2013-01-27 08:25:00,26.8,14.4,30.12,South,180,0.0,0.0,59,0.00,,,0.00,WUHU21636XXSP,2013-01-27 14:25:00,
2013-01-27 08:30:00,26.8,14.0,30.12,SSW,202,0.0,0.0,58,0.00,,,0.00,WUHU21636XXSP,2013-01-27 14:30:00,
2013-01-27 08:35:00,27.0,14.2,30.12,SSW,202,0.0,0.0,58,0.00,,,0.00,WUHU21636XXSP,2013-01-27 14:35:00,
2013-01-27 08:39:00,27.0,14.6,30.12,South,180,0.0,0.0,59,0.00,,,0.00,WUHU21636XXSP,2013-01-27 14:39:00,
2013-01-27 08:45:00,27.1,14.3,30.12,SSW,202,0.0,0.0,58,0.00,,,0.00,WUHU21636XXSP,2013-01-27 14:45:00,
2013-01-27 08:50:00,27.1,14.3,30.12,SSW,202,0.0,0.0,58,0.00,,,0.00,WUHU21636XXSP,2013-01-27 14:50:00,
2013-01-27 08:55:00,27.1,14.7,30.12,SSW,202,0.0,0.0,59,0.00,,,0.00,WUHU21636XXSP,2013-01-27 14:55:00,
2013-01-27 09:00:00,27.3,14.5,30.12,SSW,202,0.0,0.0,58,0.00,,,0.00,WUHU21636XXSP,2013-01-27 15:00:00,
2013-01-27 09:05:00,27.3,14.1,30.12,WNW,292,0.0,0.0,57,0.00,,,0.00,WUHU21636XXSP,2013-01-27 15:05:00,
2013-01-27 09:10:00,27.5,14.3,30.12,WSW,247,0.0,0.0,57,0.00,,,0.00,WUHU21636XXSP,2013-01-27 15:10:00,
2013-01-27 09:15:00,27.7,14.5,30.12,WNW,292,0.0,0.0,57,0.00,,,0.00,WUHU21636XXSP,2013-01-27 15:15:00,
2013-01-27 09:20:00,27.7,14.5,30.12,WSW,247,0.0,0.0,57,0.00,,,0.00,WUHU21636XXSP,2013-01-27 15:20:00,
2013-01-27 09:24:00,27.7,14.9,30.12,WSW,247,0.0,0.0,58,0.00,,,0.00,WUHU21636XXSP,2013-01-27 15:24:00,
2013-01-27 09:29:00,27.9,15.5,30.12,NNE,22,0.0,0.0,59,0.00,,,0.00,WUHU21636XXSP,2013-01-27 15:29:00,
2013-01-27 09:34:00,28.0,14.8,30.11,West,270,0.0,0.0,57,0.00,,,0.00,WUHU21636XXSP,2013-01-27 15:34:00,
2013-01-27 09:40:00,28.0,15.2,30.11,SSE,157,0.0,0.0,58,0.00,,,0.00,WUHU21636XXSP,2013-01-27 15:40:00,
2013-01-27 09:45:00,28.0,15.6,30.10,SW,225,0.0,0.0,59,0.00,,,0.00,WUHU21636XXSP,2013-01-27 15:45:00,
2013-01-27 09:50:00,28.0,16.7,30.10,East,90,0.0,0.0,62,0.00,,,0.00,WUHU21636XXSP,2013-01-27 15:50:00,
2013-01-27 09:55:00,28.0,16.7,30.10,East,90,0.0,0.0,62,0.00,,,0.00,WUHU21636XXSP,2013-01-27 15:55:00,
2013-01-27 10:00:00,28.0,17.8,30.10,SW,225,0.0,0.0,65,0.00,,,0.00,WUHU21636XXSP,2013-01-27 16:00:00,
2013-01-27 10:05:00,28.0,17.8,30.10,WSW,247,0.0,0.0,65,0.00,,,0.00,WUHU21636XXSP,2013-01-27 16:05:00,
2013-01-27 10:10:00,28.0,18.2,30.10,WNW,292,0.0,0.0,66,0.00,,,0.00,WUHU21636XXSP,2013-01-27 16:10:00,
2013-01-27 10:15:00,28.2,18.8,30.09,South,180,0.0,0.0,67,0.00,,,0.00,WUHU21636XXSP,2013-01-27 16:15:00,
2013-01-27 10:20:00,28.2,18.8,30.08,ESE,112,0.0,0.0,67,0.00,,,0.00,WUHU21636XXSP,2013-01-27 16:20:00,
2013-01-27 10:25:00,28.2,19.1,30.08,ENE,67,0.0,0.0,68,0.00,,,0.00,WUHU21636XXSP,2013-01-27 16:25:00,
2013-01-27 10:30:00,28.2,19.8,30.08,NE,45,0.0,0.0,70,0.00,,,0.00,WUHU21636XXSP,2013-01-27 16:30:00,
2013-01-27 10:35:00,28.0,19.9,30.08,East,90,0.0,0.0,71,0.00,,,0.00,WUHU21636XXSP,2013-01-27 16:35:00,
2013-01-27 10:40:00,27.7,19.9,30.08,ENE,67,0.0,0.0,72,0.00,,,0.00,WUHU21636XXSP,2013-01-27 16:40:00,
2013-01-27 10:45:00,27.7,19.9,30.07,NE,45,0.0,0.0,72,0.00,,,0.00,WUHU21636XXSP,2013-01-27 16:45:00,
2013-01-27 10:50:00,27.7,19.9,30.06,ESE,112,0.0,0.0,72,0.00,,,0.00,WUHU21636XXSP,2013-01-27 16:50:00,
2013-01-27 10:55:00,27.7,19.9,30.06,NNE,22,0.0,0.0,72,0.00,,,0.00,WUHU21636XXSP,2013-01-27 16:55:00,
2013-01-27 11:00:00,27.9,20.1,30.06,SSE,157,0.0,0.0,72,0.00,,,0.00,WUHU21636XXSP,2013-01-27 17:00:00,
2013-01-27 11:05:00,28.0,20.2,30.05,NE,45,0.0,0.0,72,0.00,,,0.00,WUHU21636XXSP,2013-01-27 17:05:00,
2013-01-27 11:10:00,28.2,20.4,30.05,SSE,157,0.0,0.0,72,0.00,,,0.00,WUHU21636XXSP,2013-01-27 17:10:00,
2013-01-27 11:15:00,28.2,20.4,30.06,East,90,0.0,0.0,72,0.00,,,0.00,WUHU21636XXSP,2013-01-27 17:15:00,
2013-01-27 11:20:00,28.7,21.2,30.05,NE,45,0.0,0.0,73,0.00,,,0.00,WUHU21636XXSP,2013-01-27 17:20:00,
2013-01-27 11:25:00,28.7,21.2,30.05,SE,135,0.0,0.0,73,0.00,,,0.00,WUHU21636XXSP,2013-01-27 17:25:00,
2013-01-27 11:30:00,28.7,21.2,30.05,NE,45,0.0,0.0,73,0.00,,,0.00,WUHU21636XXSP,2013-01-27 17:30:00,
2013-01-27 11:35:00,28.7,21.2,30.03,ESE,112,0.0,0.0,73,0.00,,,0.00,WUHU21636XXSP,2013-01-27 17:35:00,
2013-01-27 11:40:00,28.7,21.5,30.03,ENE,67,0.0,0.0,74,0.00,,,0.00,WUHU21636XXSP,2013-01-27 17:40:00,
2013-01-27 11:45:00,28.9,21.7,30.03,ESE,112,0.0,0.0,74,0.00,,,0.00,WUHU21636XXSP,2013-01-27 17:45:00,
2013-01-27 11:50:00,29.0,21.8,30.02,ESE,112,0.0,0.0,74,0.00,,,0.00,WUHU21636XXSP,2013-01-27 17:50:00,
2013-01-27 11:55:00,29.0,21.8,30.03,NE,45,0.0,0.0,74,0.00,,,0.00,WUHU21636XXSP,2013-01-27 17:55:00,
2013-01-27 12:00:00,29.0,22.1,30.02,East,90,0.0,0.0,75,0.00,,,0.00,WUHU21636XXSP,2013-01-27 18:00:00,
2013-01-27 12:05:00,29.0,22.1,30.02,East,90,0.0,0.0,75,0.00,,,0.00,WUHU21636XXSP,2013-01-27 18:05:00,
2013-01-27 12:10:00,29.0,22.1,30.02,East,90,0.0,0.0,75,0.00,,,0.00,WUHU21636XXSP,2013-01-27 18:10:00,
2013-01-27 12:15:00,29.0,22.4,30.02,ESE,112,0.0,0.0,76,0.00,,,0.00,WUHU21636XXSP,2013-01-27 18:15:00,
2013-01-27 12:20:00,29.0,22.7,30.02,ENE,67,0.0,0.0,77,0.00,,,0.00,WUHU21636XXSP,2013-01-27 18:20:00,
2013-01-27 12:25:00,29.0,22.7,30.02,ENE,67,0.0,0.0,77,0.00,,,0.00,WUHU21636XXSP,2013-01-27 18:25:00,
2013-01-27 12:30:00,29.0,22.7,30.01,SSW,202,0.0,0.0,77,0.00,,,0.00,WUHU21636XXSP,2013-01-27 18:30:00,
2013-01-27 12:35:00,29.0,22.7,30.00,SSE,157,0.0,0.0,77,0.00,,,0.00,WUHU21636XXSP,2013-01-27 18:35:00,
2013-01-27 12:40:00,29.0,23.0,30.00,East,90,0.0,0.0,78,0.00,,,0.00,WUHU21636XXSP,2013-01-27 18:40:00,
2013-01-27 12:45:00,29.0,23.0,30.01,East,90,0.0,0.0,78,0.00,,,0.00,WUHU21636XXSP,2013-01-27 18:45:00,
2013-01-27 12:50:00,29.0,23.0,30.01,ENE,67,0.0,0.0,78,0.00,,,0.00,WUHU21636XXSP,2013-01-27 18:50:00,
2013-01-27 12:55:00,29.2,23.5,30.01,SSE,157,0.0,0.0,79,0.00,,,0.00,WUHU21636XXSP,2013-01-27 18:55:00,
2013-01-27 13:00:00,29.2,23.5,30.00,ESE,112,0.0,0.0,79,0.00,,,0.00,WUHU21636XXSP,2013-01-27 19:00:00,
2013-01-27 13:05:00,29.2,23.5,30.00,ENE,67,0.0,0.0,79,0.00,,,0.00,WUHU21636XXSP,2013-01-27 19:05:00,
2013-01-27 13:10:00,29.0,23.3,29.98,East,90,0.0,0.0,79,0.00,,,0.00,WUHU21636XXSP,2013-01-27 19:10:00,
2013-01-27 13:15:00,29.0,23.3,29.97,East,90,0.0,0.0,79,0.00,,,0.00,WUHU21636XXSP,2013-01-27 19:15:00,
2013-01-27 13:20:00,29.0,23.3,29.95,NE,45,0.0,0.0,79,0.00,,,0.00,WUHU21636XXSP,2013-01-27 19:20:00,
2013-01-27 13:25:00,28.9,23.2,29.95,NE,45,0.0,0.0,79,0.00,,,0.00,WUHU21636XXSP,2013-01-27 19:25:00,
2013-01-27 13:30:00,29.0,23.6,29.95,South,180,0.0,0.0,80,0.00,,,0.00,WUHU21636XXSP,2013-01-27 19:30:00,
2013-01-27 13:35:00,29.2,23.8,29.95,NNE,22,0.0,0.0,80,0.00,,,0.00,WUHU21636XXSP,2013-01-27 19:35:00,
2013-01-27 13:40:00,29.0,23.6,29.96,NNW,337,0.0,0.0,80,0.00,,,0.00,WUHU21636XXSP,2013-01-27 19:40:00,
2013-01-27 13:45:00,29.2,23.8,29.96,SE,135,0.0,0.0,80,0.00,,,0.00,WUHU21636XXSP,2013-01-27 19:45:00,
2013-01-27 13:50:00,29.2,23.8,29.94,SSE,157,0.0,0.0,80,0.00,,,0.00,WUHU21636XXSP,2013-01-27 19:50:00,
2013-01-27 13:55:00,29.4,24.0,29.94,West,270,0.0,0.0,80,0.00,,,0.00,WUHU21636XXSP,2013-01-27 19:55:00,
2013-01-27 14:00:00,29.4,24.0,29.94,WNW,292,0.0,0.0,80,0.00,,,0.00,WUHU21636XXSP,2013-01-27 20:00:00,
2013-01-27 14:07:00,29.6,24.2,29.96,SSW,202,0.0,0.0,80,0.00,,,0.00,WUHU21636XXSP,2013-01-27 20:07:00,
2013-01-27 14:12:00,29.9,24.5,29.95,South,180,0.0,0.0,80,0.00,,,0.00,WUHU21636XXSP,2013-01-27 20:12:00,
2013-01-27 14:17:00,29.9,24.5,29.95,South,180,0.0,0.0,80,0.00,,,0.00,WUHU21636XXSP,2013-01-27 20:17:00,
2013-01-27 14:22:00,30.1,24.7,29.94,ENE,67,0.0,0.0,80,0.00,,,0.00,WUHU21636XXSP,2013-01-27 20:22:00,
2013-01-27 14:27:00,30.1,24.7,29.93,NNE,22,0.0,0.0,80,0.00,,,0.00,WUHU21636XXSP,2013-01-27 20:27:00,
2013-01-27 14:32:00,30.1,24.7,29.92,South,180,0.0,0.0,80,0.00,,,0.00,WUHU21636XXSP,2013-01-27 20:32:00,
2013-01-27 14:38:00,30.3,24.9,29.92,ENE,67,0.0,0.0,80,0.00,,,0.00,WUHU21636XXSP,2013-01-27 20:38:00,
2013-01-27 14:43:00,30.3,24.9,29.92,ENE,67,0.0,0.0,80,0.00,,,0.00,WUHU21636XXSP,2013-01-27 20:43:00,
2013-01-27 14:48:00,30.1,24.7,29.92,ESE,112,0.0,0.0,80,0.00,,,0.00,WUHU21636XXSP,2013-01-27 20:48:00,
2013-01-27 14:53:00,30.3,24.9,29.92,NNW,337,0.0,0.0,80,0.00,,,0.00,WUHU21636XXSP,2013-01-27 20:53:00,
2013-01-27 14:58:00,30.1,25.0,29.92,North,0,0.0,0.0,81,0.00,,,0.00,WUHU21636XXSP,2013-01-27 20:58:00,
2013-01-27 15:03:00,30.1,25.0,29.93,ENE,67,0.0,0.0,81,0.00,,,0.00,WUHU21636XXSP,2013-01-27 21:03:00,
2013-01-27 15:08:00,30.1,24.7,29.93,South,180,0.0,0.0,80,0.00,,,0.00,WUHU21636XXSP,2013-01-27 21:08:00,
2013-01-27 15:13:00,30.1,25.0,29.93,South,180,0.0,0.0,81,0.00,,,0.00,WUHU21636XXSP,2013-01-27 21:13:00,
2013-01-27 15:18:00,30.1,25.0,29.92,South,180,0.0,0.0,81,0.00,,,0.00,WUHU21636XXSP,2013-01-27 21:18:00,
2013-01-27 15:23:00,30.1,25.0,29.92,South,180,0.0,0.0,81,0.00,,,0.00,WUHU21636XXSP,2013-01-27 21:23:00,
2013-01-27 15:28:00,30.1,25.0,29.92,South,180,0.0,0.0,81,0.00,,,0.00,WUHU21636XXSP,2013-01-27 21:28:00,
2013-01-27 15:33:00,30.1,25.0,29.91,ESE,112,0.0,0.0,81,0.00,,,0.00,WUHU21636XXSP,2013-01-27 21:33:00,
2013-01-27 15:38:00,30.1,25.0,29.91,ESE,112,0.0,0.0,81,0.00,,,0.00,WUHU21636XXSP,2013-01-27 21:38:00,
2013-01-27 15:43:00,30.3,25.5,29.91,East,90,0.0,0.0,82,0.00,,,0.00,WUHU21636XXSP,2013-01-27 21:43:00,
2013-01-27 15:48:00,30.1,25.0,29.91,SE,135,0.0,0.0,81,0.00,,,0.00,WUHU21636XXSP,2013-01-27 21:48:00,
2013-01-27 15:53:00,30.3,25.2,29.91,ESE,112,0.0,0.0,81,0.00,,,0.00,WUHU21636XXSP,2013-01-27 21:53:00,
2013-01-27 15:58:00,30.6,25.4,29.91,NW,315,0.0,0.0,81,0.00,,,0.00,WUHU21636XXSP,2013-01-27 21:58:00,
2013-01-27 16:03:00,30.3,25.2,29.91,NE,45,0.0,0.0,81,0.00,,,0.00,WUHU21636XXSP,2013-01-27 22:03:00,
2013-01-27 16:08:00,30.3,25.2,29.90,SE,135,0.0,0.0,81,0.00,,,0.00,WUHU21636XXSP,2013-01-27 22:08:00,
2013-01-27 16:13:00,30.1,25.3,29.90,NNE,22,0.0,0.0,82,0.00,,,0.00,WUHU21636XXSP,2013-01-27 22:13:00,
2013-01-27 16:18:00,30.1,25.3,29.90,ESE,112,0.0,0.0,82,0.00,,,0.00,WUHU21636XXSP,2013-01-27 22:18:00,
2013-01-27 16:23:00,30.1,25.3,29.90,ESE,112,0.0,0.0,82,0.00,,,0.00,WUHU21636XXSP,2013-01-27 22:23:00,
2013-01-27 16:28:00,30.1,25.3,29.90,ENE,67,0.0,0.0,82,0.00,,,0.00,WUHU21636XXSP,2013-01-27 22:28:00,
2013-01-27 16:33:00,30.1,25.3,29.90,SSE,157,0.0,0.0,82,0.00,,,0.00,WUHU21636XXSP,2013-01-27 22:33:00,
2013-01-27 16:38:00,30.1,25.3,29.90,ESE,112,0.0,0.0,82,0.00,,,0.00,WUHU21636XXSP,2013-01-27 22:38:00,
2013-01-27 16:43:00,30.3,25.5,29.89,SSE,157,4.0,4.0,82,0.00,,,0.00,WUHU21636XXSP,2013-01-27 22:43:00,
2013-01-27 16:48:00,30.1,25.3,29.89,East,90,0.0,4.0,82,0.00,,,0.00,WUHU21636XXSP,2013-01-27 22:48:00,
2013-01-27 16:53:00,30.1,25.3,29.89,South,180,0.0,4.0,82,0.00,,,0.00,WUHU21636XXSP,2013-01-27 22:53:00,
2013-01-27 16:58:00,30.1,25.3,29.89,South,180,0.0,0.0,82,0.00,,,0.00,WUHU21636XXSP,2013-01-27 22:58:00,
2013-01-27 17:03:00,30.1,25.3,29.89,SSE,157,0.0,0.0,82,0.00,,,0.00,WUHU21636XXSP,2013-01-27 23:03:00,
2013-01-27 17:08:00,30.1,25.3,29.88,SSE,157,0.0,0.0,82,0.00,,,0.00,WUHU21636XXSP,2013-01-27 23:08:00,
2013-01-27 17:13:00,30.1,25.3,29.88,ESE,112,0.0,0.0,82,0.00,,,0.00,WUHU21636XXSP,2013-01-27 23:13:00,
2013-01-27 17:18:00,29.9,25.1,29.88,ESE,112,0.0,0.0,82,0.00,,,0.00,WUHU21636XXSP,2013-01-27 23:18:00,
2013-01-27 17:23:00,30.1,25.3,29.88,ENE,67,0.0,0.0,82,0.00,,,0.00,WUHU21636XXSP,2013-01-27 23:23:00,
2013-01-27 17:28:00,30.1,25.3,29.88,SE,135,0.0,0.0,82,0.00,,,0.00,WUHU21636XXSP,2013-01-27 23:28:00,
2013-01-27 17:33:00,30.1,25.3,29.88,NE,45,0.0,0.0,82,0.00,,,0.00,WUHU21636XXSP,2013-01-27 23:33:00,
2013-01-27 17:38:00,30.1,25.3,29.88,South,180,0.0,0.0,82,0.00,,,0.00,WUHU21636XXSP,2013-01-27 23:38:00,
2013-01-27 17:43:00,30.1,25.3,29.88,ENE,67,0.0,0.0,82,0.00,,,0.00,WUHU21636XXSP,2013-01-27 23:43:00,
2013-01-27 17:48:00,30.1,25.3,29.88,South,180,0.0,0.0,82,0.00,,,0.00,WUHU21636XXSP,2013-01-27 23:48:00,
2013-01-27 17:53:00,30.1,25.3,29.88,NE,45,0.0,0.0,82,0.00,,,0.00,WUHU21636XXSP,2013-01-27 23:53:00,
2013-01-27 17:58:00,30.1,25.3,29.87,South,180,0.0,0.0,82,0.00,,,0.00,WUHU21636XXSP,2013-01-27 23:58:00,
2013-01-27 18:03:00,30.1,25.3,29.87,NE,45,0.0,0.0,82,0.00,,,0.00,WUHU21636XXSP,2013-01-28 00:03:00,
2013-01-27 18:08:00,30.1,25.3,29.87,East,90,0.0,0.0,82,0.00,,,0.00,WUHU21636XXSP,2013-01-28 00:08:00,
2013-01-27 18:13:00,30.1,25.3,29.87,SSE,157,0.0,0.0,82,0.00,,,0.00,WUHU21636XXSP,2013-01-28 00:13:00,
2013-01-27 18:18:00,30.1,25.3,29.87,SSE,157,0.0,0.0,82,0.00,,,0.00,WUHU21636XXSP,2013-01-28 00:18:00,
2013-01-27 18:23:00,30.3,25.5,29.87,SE,135,0.0,0.0,82,0.00,,,0.00,WUHU21636XXSP,2013-01-28 00:23:00,
2013-01-27 18:28:00,30.3,25.5,29.87,NNW,337,0.0,0.0,82,0.00,,,0.00,WUHU21636XXSP,2013-01-28 00:28:00,
2013-01-27 18:33:00,30.3,25.5,29.87,ESE,112,0.0,0.0,82,0.00,,,0.00,WUHU21636XXSP,2013-01-28 00:33:00,
2013-01-27 18:38:00,30.3,25.5,29.87,East,90,0.0,0.0,82,0.00,,,0.00,WUHU21636XXSP,2013-01-28 00:38:00,
2013-01-27 18:43:00,30.3,25.5,29.87,ESE,112,0.0,0.0,82,0.00,,,0.00,WUHU21636XXSP,2013-01-28 00:43:00,
2013-01-27 18:48:00,30.3,25.5,29.86,ENE,67,0.0,0.0,82,0.00,,,0.00,WUHU21636XXSP,2013-01-28 00:48:00,
2013-01-27 18:53:00,30.3,25.5,29.86,ENE,67,0.0,0.0,82,0.00,,,0.00,WUHU21636XXSP,2013-01-28 00:53:00,
2013-01-27 18:58:00,30.3,25.5,29.86,SE,135,0.0,0.0,82,0.00,,,0.00,WUHU21636XXSP,2013-01-28 00:58:00,
2013-01-27 19:03:00,30.3,25.5,29.86,ESE,112,0.0,0.0,82,0.00,,,0.00,WUHU21636XXSP,2013-01-28 01:03:00,
2013-01-27 19:08:00,30.3,25.5,29.86,NE,45,0.0,0.0,82,0.00,,,0.00,WUHU21636XXSP,2013-01-28 01:08:00,
2013-01-27 19:13:00,30.3,25.5,29.85,SE,135,0.0,0.0,82,0.00,,,0.00,WUHU21636XXSP,2013-01-28 01:13:00,
2013-01-27 19:18:00,30.3,25.5,29.85,SSE,157,0.0,0.0,82,0.00,,,0.00,WUHU21636XXSP,2013-01-28 01:18:00,
2013-01-27 19:23:00,30.3,25.5,29.85,SW,225,0.0,0.0,82,0.00,,,0.00,WUHU21636XXSP,2013-01-28 01:23:00,
2013-01-27 19:28:00,30.3,25.5,29.85,SW,225,0.0,0.0,82,0.00,,,0.00,WUHU21636XXSP,2013-01-28 01:28:00,
2013-01-27 19:33:00,30.6,25.7,29.85,NNW,337,0.0,0.0,82,0.00,,,0.00,WUHU21636XXSP,2013-01-28 01:33:00,
2013-01-27 19:38:00,30.6,25.7,29.85,SW,225,0.0,0.0,82,0.00,,,0.00,WUHU21636XXSP,2013-01-28 01:38:00,
2013-01-27 19:43:00,30.6,25.7,29.85,NE,45,0.0,0.0,82,0.00,,,0.00,WUHU21636XXSP,2013-01-28 01:43:00,
2013-01-27 19:48:00,30.6,26.0,29.84,SSE,157,0.0,0.0,83,0.00,,,0.00,WUHU21636XXSP,2013-01-28 01:48:00,
2013-01-27 19:53:00,30.6,26.0,29.84,SSE,157,0.0,0.0,83,0.00,,,0.00,WUHU21636XXSP,2013-01-28 01:53:00,
2013-01-27 19:58:00,30.6,26.0,29.84,ESE,112,0.0,0.0,83,0.00,,,0.00,WUHU21636XXSP,2013-01-28 01:58:00,
2013-01-27 20:03:00,30.6,26.0,29.84,SSE,157,0.0,0.0,83,0.00,,,0.00,WUHU21636XXSP,2013-01-28 02:03:00,
2013-01-27 20:08:00,30.6,26.0,29.84,SSE,157,0.0,0.0,83,0.00,,,0.00,WUHU21636XXSP,2013-01-28 02:08:00,
2013-01-27 20:13:00,30.8,26.2,29.84,ESE,112,0.0,0.0,83,0.00,,,0.00,WUHU21636XXSP,2013-01-28 02:13:00,
2013-01-27 20:18:00,30.6,26.0,29.84,NE,45,0.0,0.0,83,0.00,,,0.00,WUHU21636XXSP,2013-01-28 02:18:00,
2013-01-27 20:23:00,30.6,26.0,29.83,North,0,0.0,0.0,83,0.00,,,0.00,WUHU21636XXSP,2013-01-28 02:23:00,
2013-01-27 20:28:00,30.6,26.0,29.83,North,0,0.0,0.0,83,0.00,,,0.00,WUHU21636XXSP,2013-01-28 02:28:00,
2013-01-27 20:33:00,30.6,26.0,29.83,SE,135,0.0,0.0,83,0.00,,,0.00,WUHU21636XXSP,2013-01-28 02:33:00,
2013-01-27 20:38:00,30.6,26.0,29.83,ENE,67,0.0,0.0,83,0.00,,,0.00,WUHU21636XXSP,2013-01-28 02:38:00,
2013-01-27 20:43:00,30.6,26.0,29.82,East,90,0.0,0.0,83,0.00,,,0.00,WUHU21636XXSP,2013-01-28 02:43:00,
2013-01-27 20:48:00,30.6,26.0,29.82,NE,45,0.0,0.0,83,0.00,,,0.00,WUHU21636XXSP,2013-01-28 02:48:00,
2013-01-27 20:53:00,30.6,26.0,29.82,NE,45,0.0,0.0,83,0.00,,,0.00,WUHU21636XXSP,2013-01-28 02:53:00,
2013-01-27 20:58:00,30.8,26.2,29.82,NE,45,0.0,0.0,83,0.00,,,0.00,WUHU21636XXSP,2013-01-28 02:58:00,
2013-01-27 21:03:00,30.8,26.2,29.81,ENE,67,0.0,0.0,83,0.00,,,0.00,WUHU21636XXSP,2013-01-28 03:03:00,
2013-01-27 21:08:00,30.8,26.2,29.82,SW,225,0.0,0.0,83,0.00,,,0.00,WUHU21636XXSP,2013-01-28 03:08:00,
2013-01-27 21:13:00,30.8,26.2,29.81,SW,225,0.0,0.0,83,0.00,,,0.00,WUHU21636XXSP,2013-01-28 03:13:00,
2013-01-27 21:18:00,30.9,26.3,29.81,SW,225,0.0,0.0,83,0.00,,,0.00,WUHU21636XXSP,2013-01-28 03:18:00,
2013-01-27 21:23:00,30.9,26.3,29.81,SW,225,0.0,0.0,83,0.00,,,0.00,WUHU21636XXSP,2013-01-28 03:23:00,
2013-01-27 21:28:00,30.9,26.3,29.81,SW,225,0.0,0.0,83,0.00,,,0.00,WUHU21636XXSP,2013-01-28 03:28:00,
2013-01-27 21:33:00,30.9,26.3,29.81,WNW,292,0.0,0.0,83,0.00,,,0.00,WUHU21636XXSP,2013-01-28 03:33:00,
2013-01-27 21:38:00,30.9,26.3,29.80,WNW,292,0.0,0.0,83,0.00,,,0.00,WUHU21636XXSP,2013-01-28 03:38:00,
2013-01-27 21:43:00,30.9,26.3,29.81,WNW,292,0.0,0.0,83,0.00,,,0.00,WUHU21636XXSP,2013-01-28 03:43:00,
2013-01-27 21:48:00,30.9,26.3,29.80,WNW,292,0.0,0.0,83,0.00,,,0.00,WUHU21636XXSP,2013-01-28 03:48:00,
2013-01-27 21:54:00,30.9,26.3,29.80,WNW,292,0.0,0.0,83,0.00,,,0.00,WUHU21636XXSP,2013-01-28 03:54:00,
2013-01-27 21:59:00,31.1,26.5,29.80,West,270,0.0,0.0,83,0.00,,,0.00,WUHU21636XXSP,2013-01-28 03:59:00,
2013-01-27 22:04:00,31.3,26.7,29.80,ESE,112,0.0,0.0,83,0.00,,,0.00,WUHU21636XXSP,2013-01-28 04:04:00,
2013-01-27 22:09:00,31.3,26.7,29.79,SE,135,0.0,0.0,83,0.00,,,0.00,WUHU21636XXSP,2013-01-28 04:09:00,
2013-01-27 22:14:00,31.5,26.9,29.79,SE,135,0.0,0.0,83,0.00,,,0.00,WUHU21636XXSP,2013-01-28 04:14:00,
2013-01-27 22:19:00,31.5,26.9,29.79,SE,135,0.0,0.0,83,0.00,,,0.00,WUHU21636XXSP,2013-01-28 04:19:00,
2013-01-27 22:24:00,31.5,26.9,29.79,SE,135,0.0,0.0,83,0.00,,,0.00,WUHU21636XXSP,2013-01-28 04:24:00,
2013-01-27 22:29:00,31.5,27.2,29.79,SE,135,0.0,0.0,84,0.00,,,0.00,WUHU21636XXSP,2013-01-28 04:29:00,
2013-01-27 22:34:00,31.5,26.9,29.80,SE,135,0.0,0.0,83,0.00,,,0.00,WUHU21636XXSP,2013-01-28 04:34:00,
2013-01-27 22:39:00,31.3,26.7,29.80,SE,135,0.0,0.0,83,0.00,,,0.00,WUHU21636XXSP,2013-01-28 04:39:00,
2013-01-27 22:44:00,31.3,26.7,29.80,SE,135,0.0,0.0,83,0.00,,,0.00,WUHU21636XXSP,2013-01-28 04:44:00,
2013-01-27 22:49:00,31.5,26.9,29.80,SE,135,0.0,0.0,83,0.00,,,0.00,WUHU21636XXSP,2013-01-28 04:49:00,
2013-01-27 22:54:00,31.5,26.9,29.80,SE,135,0.0,0.0,83,0.00,,,0.00,WUHU21636XXSP,2013-01-28 04:54:00,
2013-01-27 22:59:00,31.5,26.9,29.80,SE,135,0.0,0.0,83,0.00,,,0.00,WUHU21636XXSP,2013-01-28 04:59:00,
2013-01-27 23:00:00,31.5,26.9,29.80,SE,135,0.0,0.0,83,0.00,,,0.00,WUHU21636XXSP,2013-01-28 05:00:00,
2013-01-27 23:01:00,31.5,26.9,29.80,SE,135,0.0,0.0,83,0.00,,,0.00,WUHU21636XXSP,2013-01-28 05:01:00,
2013-01-27 23:02:00,31.5,26.9,29.80,SE,135,0.0,0.0,83,0.00,,,0.00,WUHU21636XXSP,2013-01-28 05:02:00,
2013-01-27 23:03:00,31.5,26.9,29.80,SE,135,0.0,0.0,83,0.00,,,0.00,WUHU21636XXSP,2013-01-28 05:03:00,
2013-01-27 23:08:00,31.5,26.9,29.80,SE,135,0.0,0.0,83,0.00,,,0.00,WUHU21636XXSP,2013-01-28 05:08:00,
2013-01-27 23:13:00,31.5,26.9,29.79,SE,135,0.0,0.0,83,0.00,,,0.00,WUHU21636XXSP,2013-01-28 05:13:00,
2013-01-27 23:18:00,31.5,26.9,29.80,SE,135,0.0,0.0,83,0.00,,,0.00,WUHU21636XXSP,2013-01-28 05:18:00,
2013-01-27 23:23:00,31.5,26.9,29.80,SE,135,0.0,0.0,83,0.00,,,0.00,WUHU21636XXSP,2013-01-28 05:23:00,
2013-01-27 23:28:00,31.5,26.9,29.79,SE,135,0.0,0.0,83,0.00,,,0.00,WUHU21636XXSP,2013-01-28 05:28:00,
2013-01-27 23:33:00,31.5,26.9,29.79,SE,135,0.0,0.0,83,0.00,,,0.00,WUHU21636XXSP,2013-01-28 05:33:00,
2013-01-27 23:38:00,31.5,26.9,29.79,SE,135,0.0,0.0,83,0.00,,,0.00,WUHU21636XXSP,2013-01-28 05:38:00,
2013-01-27 23:43:00,31.5,26.9,29.79,SE,135,0.0,0.0,83,0.00,,,0.00,WUHU21636XXSP,2013-01-28 05:43:00,
2013-01-27 23:48:00,31.5,26.9,29.79,SE,135,0.0,0.0,83,0.00,,,0.00,WUHU21636XXSP,2013-01-28 05:48:00,
2013-01-27 23:53:00,31.5,26.9,29.79,SE,135,0.0,0.0,83,0.00,,,0.00,WUHU21636XXSP,2013-01-28 05:53:00,
2013-01-27 23:58:00,31.5,26.9,29.79,SE,135,0.0,0.0,83,0.00,,,0.00,WUHU21636XXSP,2013-01-28 05:58:00,